Location: ????????
(56.0167°N, 38.0333°E)
Time: 02:33:01
(UTC+00:00)

Cosmos 1515 Rocket - Pass Details

Date: 19 May 2025
Orbit: 601 x 622 km, 82.5° (Epoch: 13 June)

Event Time Altitude Azimuth Distance (km) Brightness Sun altitude
Exits shadow 23:14:53 14° 218° (SW) 1,703 5.2 -10.5°
Maximum altitude 23:18:24 46° 289° (WNW) 826 4.1 -10.3°
Drops below altitude 10° 23:22:39 10° 3° (N) 1,991 7.3 -10.0°
Sets 23:24:58 0° 10° (N) 2,905 8.6 -9.8°
